Change the Weather History Date:

Thursday, May 16, 2013

  Actual Average Record
Temperature  
Mean Temperature 60 °F -  
Max Temperature 73 °F 63 °F 80 °F (1998)
Min Temperature 48 °F 43 °F 30 °F (2000)
Degree Days  
Heating Degree Days 6    
Growing Degree Days 10 (Base 50)    
Moisture  
Dew Point 50 °F    
Average Humidity 77    
Maximum Humidity 100    
Minimum Humidity 39    
Precipitation  
Precipitation 0.00 in - - ()
Sea Level Pressure  
Sea Level Pressure 29.76 in    
Wind  
Wind Speed 4 mph (WSW)    
Max Wind Speed 16 mph    
Max Gust Speed 22 mph    
Visibility 7 miles    
Events      
Averages and records for this station are not official NWS values.
T = Trace of Precipitation, MM = Missing Value Source: NWS Daily Summary

Daily Weather History Graph

Daily Weather History Graph

Search for Another Location

Airport or City:

Trip Planner

Search our weather history database for the weather conditions in past years. The results will help you decide how hot, cold, wet, or windy it might be!

Date:

Astronomy

May. 16, 2013 Rise Set
Actual Time 5:31 AM EDT 8:02 PM EDT
Civil Twilight 5:00 AM EDT 8:33 PM EDT
Nautical Twilight 4:21 AM EDT 9:12 PM EDT
Astronomical Twilight 3:38 AM EDT 9:56 PM EDT
Moon 11:03 AM EDT (5/16) 12:20 AM EDT (5/16)
Length of Visible Light 15h 33m
Length of Day
14h 30m
Waxing Crescent, 35% of the Moon is Illuminated
May 16
Waxing Crescent
May 18
First Quarter
May 25
Full
May 31
Last Quarter
Jun 8
New

Hourly Weather History & Observations

Time (EDT) Temp. Dew Point Humidity Pressure Visibility Wind Dir Wind Speed Gust Speed Precip Events Conditions
12:53 AM 55.9 °F 53.1 °F 90% 29.72 in 7.0 mi SW 4.6 mph - N/A   Clear
1:53 AM 54.0 °F 52.0 °F 93% 29.72 in 6.0 mi Calm Calm - N/A   Clear
2:53 AM 48.9 °F 46.9 °F 93% 29.71 in 4.0 mi Calm Calm - N/A   Clear
3:48 AM 50.0 °F 48.2 °F 94% 29.72 in 2.5 mi North 3.5 mph - N/A   Clear
3:53 AM 50.0 °F 48.0 °F 93% 29.72 in 2.0 mi North 3.5 mph - N/A   Clear
4:17 AM 51.8 °F 48.2 °F 88% 29.72 in 3.0 mi NNW 4.6 mph - N/A   Clear
4:29 AM 50.0 °F 48.2 °F 94% 29.72 in 2.5 mi North 3.5 mph - N/A   Clear
4:39 AM 51.8 °F 48.2 °F 88% 29.72 in 4.0 mi North 4.6 mph - N/A   Clear
4:53 AM 53.1 °F 51.1 °F 93% 29.72 in 5.0 mi NNW 4.6 mph - N/A   Clear
5:51 AM 48.2 °F 48.2 °F 100% 29.74 in 1.8 mi Calm Calm - N/A   Clear
5:52 AM 48.9 °F 48.9 °F 100% 29.74 in 1.8 mi Calm Calm - N/A   Clear
6:10 AM 50.0 °F 48.2 °F 94% 29.75 in 2.0 mi Calm Calm - N/A   Clear
6:17 AM 50.0 °F 48.2 °F 94% 29.75 in 1.0 mi Calm Calm - N/A   Clear
6:32 AM 51.8 °F 51.8 °F 100% 29.76 in 2.5 mi Calm Calm - N/A   Clear
6:39 AM 53.6 °F 53.6 °F 100% 29.77 in 4.0 mi Calm Calm - N/A   Clear
6:53 AM 54.0 °F 52.0 °F 93% 29.77 in 4.0 mi Calm Calm - N/A   Clear
7:53 AM 62.1 °F 57.0 °F 84% 29.79 in 9.0 mi Calm Calm - N/A   Clear
8:53 AM 66.0 °F 55.9 °F 70% 29.80 in 10.0 mi SW 4.6 mph - N/A   Clear
9:53 AM 68.0 °F 55.9 °F 65% 29.82 in 10.0 mi SW 4.6 mph - N/A   Scattered Clouds
10:53 AM 64.0 °F 55.0 °F 73% 29.83 in 9.0 mi SSW 5.8 mph - N/A   Mostly Cloudy
11:53 AM 64.9 °F 53.1 °F 65% 29.81 in 10.0 mi SW 10.4 mph - N/A   Mostly Cloudy
12:53 PM 70.0 °F 46.9 °F 44% 29.80 in 10.0 mi SW 10.4 mph 20.7 mph N/A   Partly Cloudy
1:53 PM 71.1 °F 45.0 °F 39% 29.78 in 10.0 mi SW 13.8 mph 18.4 mph N/A   Clear
2:53 PM 71.1 °F 45.0 °F 39% 29.77 in 10.0 mi SSW 16.1 mph 21.9 mph N/A   Clear
3:53 PM 69.1 °F 48.0 °F 47% 29.77 in 10.0 mi SW 16.1 mph 21.9 mph N/A   Clear
4:53 PM 69.1 °F 46.0 °F 44% 29.76 in 10.0 mi SW 12.7 mph 20.7 mph N/A   Clear
5:53 PM 66.9 °F 46.9 °F 49% 29.76 in 10.0 mi SW 12.7 mph 19.6 mph N/A   Clear
6:53 PM 64.0 °F 51.1 °F 63% 29.77 in 10.0 mi SW 12.7 mph 17.3 mph N/A   Clear
7:53 PM 62.1 °F 50.0 °F 65% 29.79 in 10.0 mi SW 8.1 mph - N/A   Clear
8:53 PM 60.1 °F 48.0 °F 64% 29.80 in 10.0 mi SW 5.8 mph - N/A   Clear
9:53 PM 61.0 °F 50.0 °F 67% 29.81 in 10.0 mi SW 6.9 mph - N/A   Clear
10:53 PM 59.0 °F 51.1 °F 75% 29.81 in 9.0 mi SW 3.5 mph - N/A   Clear
11:53 PM 52.0 °F 48.0 °F 86% 29.82 in 7.0 mi Calm Calm - N/A   Partly Cloudy